,,Stat6,,Stat2,,Stat8,,Stat9,,Stat10,,Wind1,,Wind1,
time,status,PA1M_AVG,status,PR1M_SUM,status,RH1M_AVG,status,SR1M_AVG,status,TA1M_AVG,status,W1dAve1m,status,W1sAve1m,
2005-04-01, 00:00:00,VALID,916.917,VALID,0,VALID,99.9069,VALID,0,VALID,18.8824,VALID,28,VALID,0.0929878,
2005-04-01, 00:01:00,VALID,916.926,VALID,0,VALID,100,VALID,0,VALID,18.9013,VALID,30,VALID,0.463481,
2005-04-01, 00:02:00,VALID,916.936,VALID,0,VALID,100,VALID,-0.0169808,VALID,18.9241,VALID,32,VALID,0.37391,
2005-04-01, 00:03:00,VALID,916.922,VALID,0,VALID,100,VALID,0,VALID,18.9174,VALID,32,VALID,0.050686,
2005-04-01, 00:04:00,VALID,916.924,VALID,0,VALID,100,VALID,0.0169808,VALID,18.9342,VALID,32,VALID,0.0296875,
2005-04-01, 00:05:00,VALID,916.91,VALID,0,VALID,100,VALID,0,VALID,18.9303,VALID,32,VALID,0.0844131,
2005-04-01, 00:06:00,VALID,916.889,VALID,0,VALID,100,VALID,0.0339617,VALID,18.982,VALID,32,VALID,0.235734,
2005-04-01, 00:07:00,VALID,916.887,VALID,0,VALID,100,VALID,0.0169808,VALID,18.9946,VALID,32,VALID,0.187695,
2005-04-01, 00:08:00,VALID,916.908,VALID,0,VALID,100,VALID,0,VALID,19.0632,VALID,32,VALID,0,
2005-04-01, 00:09:00,VALID,916.919,VALID,0,VALID,100,VALID,0,VALID,19.1208,VALID,32,VALID,0,
2005-04-01, 00:10:00,VALID,916.903,VALID,0,VALID,100,VALID,0,VALID,19.1727,VALID,32,VALID,0.0173828,
2005-04-01, 00:11:00,VALID,916.887,VALID,0,VALID,100,VALID,0.0169808,VALID,19.234,VALID,32,VALID,0.160547,
2005-04-01, 00:12:00,VALID,916.871,VALID,0,VALID,100,VALID,0.0169808,VALID,19.2243,VALID,32,VALID,0.249399,
2005-04-01, 00:13:00,VALID,916.851,VALID,0,VALID,99.9967,VALID,0,VALID,19.208,VALID,32,VALID,0.198933,
2005-04-01, 00:14:00,VALID,916.854,VALID,0,VALID,99.8561,VALID,0,VALID,19.2084,VALID,32,VALID,0.299293,
2005-04-01, 00:15:00,VALID,916.841,VALID,0,VALID,99.3441,VALID,0,VALID,19.1501,VALID,32,VALID,0.231488,
2005-04-01, 00:16:00,VALID,916.839,VALID,0,VALID,99.5374,VALID,0.0169808,VALID,19.1017,VALID,32,VALID,0.0933689,
2005-04-01, 00:17:00,VALID,916.83,VALID,0,VALID,99.9474,VALID,-0.0169808,VALID,19.1084,VALID,32,VALID,0.0277158,
2005-04-01, 00:18:00,VALID,916.822,VALID,0,VALID,100,VALID,0,VALID,19.1434,VALID,32,VALID,0,
2005-04-01, 00:19:00,VALID,916.805,VALID,0,VALID,99.9863,VALID,0,VALID,19.1762,VALID,32,VALID,0.158296,
2005-04-01, 00:20:00,VALID,916.796,VALID,0,VALID,99.4293,VALID,0.0339617,VALID,19.0917,VALID,32,VALID,0.305618,
2005-04-01, 00:21:00,VALID,916.794,VALID,0,VALID,99.498,VALID,0,VALID,19.0661,VALID,32,VALID,0.206395,
2005-04-01, 00:22:00,VALID,916.776,VALID,0,VALID,99.3823,VALID,0,VALID,19.0698,VALID,32,VALID,0.0675223,
2005-04-01, 00:23:00,VALID,916.758,VALID,0,VALID,99.5285,VALID,0,VALID,19.0401,VALID,32,VALID,0,
2005-04-01, 00:24:00,VALID,916.76,VALID,0,VALID,99.5959,VALID,0,VALID,19.0373,VALID,32,VALID,0,
2005-04-01, 00:25:00,VALID,916.745,VALID,0,VALID,99.7675,VALID,0.0169808,VALID,19.0276,VALID,32,VALID,0,
2005-04-01, 00:26:00,VALID,916.752,VALID,0,VALID,100,VALID,0,VALID,19.0368,VALID,32,VALID,0,
2005-04-01, 00:27:00,VALID,916.756,VALID,0,VALID,100,VALID,0,VALID,19.0532,VALID,32,VALID,0,
2005-04-01, 00:28:00,VALID,916.759,VALID,0,VALID,100,VALID,0.0169808,VALID,19.0629,VALID,32,VALID,0,
2005-04-01, 00:29:00,VALID,916.764,VALID,0,VALID,99.9901,VALID,0,VALID,19.0763,VALID,32,VALID,0,
2005-04-01, 00:30:00,VALID,916.729,VALID,0,VALID,99.9667,VALID,0,VALID,19.0594,VALID,32,VALID,0.104539,
2005-04-01, 00:31:00,VALID,916.7,VALID,0,VALID,99.8795,VALID,0.0169808,VALID,19.053,VALID,44,VALID,0.490057,
2005-04-01, 00:32:00,VALID,916.686,VALID,0,VALID,99.1991,VALID,0.0509425,VALID,18.9688,VALID,85,VALID,0.36951,
2005-04-01, 00:33:00,VALID,916.648,VALID,0,VALID,99.4306,VALID,0.0339617,VALID,18.9276,VALID,90,VALID,0.557165,
2005-04-01, 00:34:00,VALID,916.617,VALID,0,VALID,98.9359,VALID,0.0169808,VALID,18.8496,VALID,80,VALID,0.67152,
2005-04-01, 00:35:00,VALID,916.583,VALID,0,VALID,98.2899,VALID,0.0169808,VALID,18.7143,VALID,64,VALID,0.986328,
2005-04-01, 00:36:00,VALID,916.58,VALID,0,VALID,98.6752,VALID,0.0339617,VALID,18.6465,VALID,64,VALID,0.940549,
2005-04-01, 00:37:00,VALID,916.567,VALID,0,VALID,99.6869,VALID,0.0509425,VALID,18.6661,VALID,64,VALID,0.676525,
2005-04-01, 00:38:00,VALID,916.565,VALID,0,VALID,100,VALID,0,VALID,18.7528,VALID,64,VALID,0.0801282,
2005-04-01, 00:39:00,VALID,916.535,VALID,0,VALID,100,VALID,0,VALID,18.8178,VALID,64,VALID,0.0282738,
2005-04-01, 00:40:00,VALID,916.537,VALID,0,VALID,100,VALID,0,VALID,18.8369,VALID,64,VALID,0,
2005-04-01, 00:41:00,VALID,916.516,VALID,0,VALID,100,VALID,0.0169808,VALID,18.7982,VALID,64,VALID,0,
2005-04-01, 00:42:00,VALID,916.493,VALID,0,VALID,100,VALID,0.0169808,VALID,18.8148,VALID,64,VALID,0,
2005-04-01, 00:43:00,VALID,916.478,VALID,0,VALID,100,VALID,0,VALID,18.8501,VALID,64,VALID,0,
2005-04-01, 00:44:00,VALID,916.447,VALID,0,VALID,100,VALID,0,VALID,18.86,VALID,64,VALID,0.128348,
2005-04-01, 00:45:00,VALID,916.425,VALID,0,VALID,100,VALID,0.0169808,VALID,18.8275,VALID,72,VALID,0.493712,
2005-04-01, 00:46:00,VALID,916.404,VALID,0,VALID,100,VALID,0.0169808,VALID,18.86,VALID,97,VALID,0.307292,
2005-04-01, 00:47:00,VALID,916.375,VALID,0,VALID,100,VALID,0,VALID,18.8563,VALID,97,VALID,0.116425,
2005-04-01, 00:48:00,VALID,916.364,VALID,0,VALID,100,VALID,0,VALID,18.863,VALID,97,VALID,0.133765,
2005-04-01, 00:49:00,VALID,916.346,VALID,0,VALID,100,VALID,0,VALID,18.8987,VALID,97,VALID,0,
2005-04-01, 00:50:00,VALID,916.309,VALID,0,VALID,100,VALID,0.0169808,VALID,18.9342,VALID,97,VALID,0,
2005-04-01, 00:51:00,VALID,916.308,VALID,0,VALID,100,VALID,0.0339617,VALID,18.9824,VALID,97,VALID,0.352734,
2005-04-01, 00:52:00,VALID,916.293,VALID,0,VALID,100,VALID,0.0169808,VALID,18.9824,VALID,97,VALID,0.51944,
2005-04-01, 00:53:00,VALID,916.284,VALID,0,VALID,100,VALID,0.0169808,VALID,19.0212,VALID,97,VALID,0.157203,
2005-04-01, 00:54:00,VALID,916.282,VALID,0,VALID,99.97,VALID,0.0169808,VALID,18.9824,VALID,97,VALID,0.206473,
2005-04-01, 00:55:00,VALID,916.286,VALID,0,VALID,100,VALID,0,VALID,18.9693,VALID,97,VALID,0.0271662,
2005-04-01, 00:56:00,VALID,916.263,VALID,0,VALID,100,VALID,0.0169808,VALID,18.9857,VALID,97,VALID,0.0143229,
2005-04-01, 00:57:00,VALID,916.23,VALID,0,VALID,99.9967,VALID,0.0169808,VALID,18.9439,VALID,97,VALID,0.413175,
2005-04-01, 00:58:00,VALID,916.227,VALID,0,VALID,100,VALID,0,VALID,18.9082,VALID,97,VALID,0.155506,
2005-04-01, 00:59:00,VALID,916.237,VALID,0,VALID,100,VALID,0.0169808,VALID,18.895,VALID,97,VALID,0,
2005-04-01, 01:00:00,VALID,916.236,VALID,0,VALID,100,VALID,0.0679233,VALID,18.9047,VALID,97,VALID,0.249238,
2005-04-01, 01:01:00,VALID,916.23,VALID,0,VALID,100,VALID,0.0679233,VALID,18.9375,VALID,97,VALID,0.419744,
2005-04-01, 01:02:00,VALID,916.216,VALID,0,VALID,100,VALID,0.0169808,VALID,18.9884,VALID,97,VALID,0.123857,
2005-04-01, 01:03:00,VALID,916.181,VALID,0,VALID,100,VALID,0.0169808,VALID,18.9981,VALID,97,VALID,0,
2005-04-01, 01:04:00,VALID,916.173,VALID,0,VALID,100,VALID,0.0169808,VALID,18.9795,VALID,97,VALID,0,
2005-04-01, 01:05:00,VALID,916.169,VALID,0,VALID,100,VALID,0.0169808,VALID,18.9695,VALID,97,VALID,0.00232713,
2005-04-01, 01:06:00,VALID,916.159,VALID,0,VALID,99.9677,VALID,0,VALID,18.9278,VALID,97,VALID,0.265039,
2005-04-01, 01:07:00,VALID,916.14,VALID,0,VALID,99.9977,VALID,0,VALID,18.9089,VALID,97,VALID,0.146909,
2005-04-01, 01:08:00,VALID,916.122,VALID,0,VALID,100,VALID,0.0169808,VALID,18.9285,VALID,97,VALID,0.0481468,
2005-04-01, 01:09:00,VALID,916.098,VALID,0,VALID,100,VALID,0,VALID,18.8957,VALID,97,VALID,0.0552455,
2005-04-01, 01:10:00,VALID,916.057,VALID,0,VALID,99.1724,VALID,0,VALID,18.7574,VALID,55,VALID,0.548363,
2005-04-01, 01:11:00,VALID,916.072,VALID,0,VALID,98.8965,VALID,0,VALID,18.6117,VALID,43,VALID,0.12221,
2005-04-01, 01:12:00,VALID,916.064,VALID,0,VALID,99.7706,VALID,0,VALID,18.6725,VALID,334,VALID,0.460732,
2005-04-01, 01:13:00,VALID,916.036,VALID,0,VALID,100,VALID,0,VALID,18.8757,VALID,254,VALID,0.848837,
2005-04-01, 01:14:00,VALID,916.002,VALID,0,VALID,100,VALID,0.0169808,VALID,19.0087,VALID,251,VALID,0.582209,
2005-04-01, 01:15:00,VALID,915.958,VALID,0,VALID,100,VALID,0,VALID,19.0795,VALID,251,VALID,0.0866477,
2005-04-01, 01:16:00,VALID,915.943,VALID,0,VALID,100,VALID,0,VALID,19.1051,VALID,251,VALID,0,
2005-04-01, 01:17:00,VALID,915.916,VALID,0,VALID,100,VALID,0.0169808,VALID,19.1347,VALID,251,VALID,0.361111,
2005-04-01, 01:18:00,VALID,915.894,VALID,0,VALID,100,VALID,0,VALID,19.128,VALID,251,VALID,0.529154,
2005-04-01, 01:19:00,VALID,915.869,VALID,0,VALID,100,VALID,-0.0679233,VALID,19.1649,VALID,251,VALID,0.009375,
2005-04-01, 01:20:00,VALID,915.852,VALID,0,VALID,100,VALID,-0.0849042,VALID,19.1838,VALID,251,VALID,0,
2005-04-01, 01:21:00,VALID,915.833,VALID,0,VALID,100,VALID,-0.0849042,VALID,19.2397,VALID,251,VALID,0,
2005-04-01, 01:22:00,VALID,915.795,VALID,0,VALID,99.6567,VALID,-0.0679233,VALID,19.2196,VALID,350,VALID,0.60174,
2005-04-01, 01:23:00,VALID,915.784,VALID,0,VALID,99.3276,VALID,-0.101885,VALID,19.1942,VALID,23,VALID,0.695685,
2005-04-01, 01:24:00,VALID,915.784,VALID,0,VALID,98.3612,VALID,-0.0849042,VALID,19.0775,VALID,18,VALID,0.508929,
2005-04-01, 01:25:00,VALID,915.791,VALID,0,VALID,98.9779,VALID,-0.101885,VALID,19.0577,VALID,350,VALID,0.387718,
2005-04-01, 01:26:00,VALID,915.793,VALID,0,VALID,99.5539,VALID,-0.0849042,VALID,19.1033,VALID,298,VALID,0.325,
2005-04-01, 01:27:00,VALID,915.772,VALID,0,VALID,99.8375,VALID,-0.101885,VALID,19.1389,VALID,298,VALID,0.429155,
2005-04-01, 01:28:00,VALID,915.771,VALID,0,VALID,99.9532,VALID,-0.101885,VALID,19.1647,VALID,291,VALID,0.587109,
2005-04-01, 01:29:00,VALID,915.775,VALID,0,VALID,99.9176,VALID,-0.118866,VALID,19.1684,VALID,268,VALID,0.532617,
2005-04-01, 01:30:00,VALID,915.769,VALID,0,VALID,99.9278,VALID,-0.101885,VALID,19.1292,VALID,240,VALID,0.517805,
2005-04-01, 01:31:00,VALID,915.773,VALID,0,VALID,99.8718,VALID,-0.101885,VALID,19.0937,VALID,216,VALID,0.5,
2005-04-01, 01:32:00,VALID,915.78,VALID,0,VALID,99.8947,VALID,-0.101885,VALID,19.045,VALID,215,VALID,0.353379,
2005-04-01, 01:33:00,VALID,915.774,VALID,0,VALID,99.9967,VALID,-0.101885,VALID,19.0325,VALID,215,VALID,0.0572351,
2005-04-01, 01:34:00,VALID,915.764,VALID,0,VALID,100,VALID,0,VALID,19.0055,VALID,215,VALID,0.0012718,
2005-04-01, 01:35:00,VALID,915.736,VALID,0,VALID,100,VALID,-0.0169808,VALID,19.0018,VALID,215,VALID,0,
2005-04-01, 01:36:00,VALID,915.71,VALID,0,VALID,100,VALID,-0.0169808,VALID,19.005,VALID,215,VALID,0.0025436,
2005-04-01, 01:37:00,VALID,915.675,VALID,0,VALID,100,VALID,-0.0169808,VALID,18.9991,VALID,215,VALID,0.0371094,
2005-04-01, 01:38:00,VALID,915.652,VALID,0,VALID,100,VALID,0,VALID,18.9566,VALID,215,VALID,0.158794,
2005-04-01, 01:39:00,VALID,915.654,VALID,0,VALID,99.9893,VALID,-0.0169808,VALID,18.9149,VALID,215,VALID,0.000381098,
2005-04-01, 01:40:00,VALID,915.661,VALID,0,VALID,100,VALID,0,VALID,18.928,VALID,215,VALID,0.244727,
2005-04-01, 01:41:00,VALID,915.65,VALID,0,VALID,100,VALID,-0.0169808,VALID,18.9668,VALID,231,VALID,0.524926,
2005-04-01, 01:42:00,VALID,915.606,VALID,0,VALID,100,VALID,0,VALID,18.9861,VALID,272,VALID,0.356771,
2005-04-01, 01:43:00,VALID,915.58,VALID,0,VALID,100,VALID,-0.0509425,VALID,18.9601,VALID,10,VALID,0.958274,
2005-04-01, 01:44:00,VALID,915.589,VALID,0,VALID,100,VALID,-0.0169808,VALID,18.9663,VALID,10,VALID,0.202381,
2005-04-01, 01:45:00,VALID,915.592,VALID,0,VALID,100,VALID,0,VALID,18.9732,VALID,10,VALID,0,
2005-04-01, 01:46:00,VALID,915.569,VALID,0,VALID,100,VALID,0,VALID,18.9601,VALID,10,VALID,0.0649934,
2005-04-01, 01:47:00,VALID,915.588,VALID,0,VALID,100,VALID,0,VALID,18.9435,VALID,10,VALID,0.032269,
2005-04-01, 01:48:00,VALID,915.603,VALID,0,VALID,100,VALID,0,VALID,18.9315,VALID,79,VALID,0.71582,
2005-04-01, 01:49:00,VALID,915.583,VALID,0,VALID,100,VALID,-0.0849042,VALID,18.9029,VALID,187,VALID,0.465909,
2005-04-01, 01:50:00,VALID,915.576,VALID,0,VALID,100,VALID,-0.101885,VALID,18.9034,VALID,187,VALID,0.0694041,
2005-04-01, 01:51:00,VALID,915.574,VALID,0,VALID,99.9713,VALID,-0.101885,VALID,18.8649,VALID,187,VALID,0,
2005-04-01, 01:52:00,VALID,915.588,VALID,0,VALID,99.8795,VALID,-0.0849042,VALID,18.7874,VALID,187,VALID,0,
2005-04-01, 01:53:00,VALID,915.589,VALID,0,VALID,99.968,VALID,-0.101885,VALID,18.7715,VALID,188,VALID,0.160334,
2005-04-01, 01:54:00,VALID,915.584,VALID,0,VALID,100,VALID,-0.101885,VALID,18.7775,VALID,191,VALID,0.0868902,
2005-04-01, 01:55:00,VALID,915.576,VALID,0,VALID,99.899,VALID,-0.101885,VALID,18.729,VALID,191,VALID,0,
2005-04-01, 01:56:00,VALID,915.567,VALID,0,VALID,99.2055,VALID,-0.101885,VALID,18.6031,VALID,191,VALID,0,
2005-04-01, 01:57:00,VALID,915.576,VALID,0,VALID,99.5323,VALID,-0.101885,VALID,18.5676,VALID,191,VALID,0,
2005-04-01, 01:58:00,VALID,915.572,VALID,0,VALID,99.9598,VALID,-0.101885,VALID,18.6031,VALID,191,VALID,0,
2005-04-01, 01:59:00,VALID,915.565,VALID,0,VALID,99.7408,VALID,-0.118866,VALID,18.5713,VALID,191,VALID,0,
2005-04-01, 02:00:00,VALID,915.566,VALID,0,VALID,99.2271,VALID,-0.118866,VALID,18.4452,VALID,191,VALID,0.335751,
2005-04-01, 02:01:00,VALID,915.563,VALID,0,VALID,99.2564,VALID,0,VALID,18.3695,VALID,191,VALID,0.18936,
2005-04-01, 02:02:00,VALID,915.562,VALID,0,VALID,99.4992,VALID,0,VALID,18.3246,VALID,191,VALID,0.0344122,
2005-04-01, 02:03:00,VALID,915.564,VALID,0,VALID,99.8889,VALID,0,VALID,18.3048,VALID,191,VALID,0,
2005-04-01, 02:04:00,VALID,915.571,VALID,0,VALID,100,VALID,-0.0169808,VALID,18.3499,VALID,191,VALID,0,
2005-04-01, 02:05:00,VALID,915.554,VALID,0,VALID,100,VALID,0,VALID,18.3958,VALID,191,VALID,0,
2005-04-01, 02:06:00,VALID,915.544,VALID,0,VALID,99.9939,VALID,0,VALID,18.3472,VALID,191,VALID,0.266513,
2005-04-01, 02:07:00,VALID,915.55,VALID,0,VALID,99.6913,VALID,0,VALID,18.2471,VALID,184,VALID,0.239757,
2005-04-01, 02:08:00,VALID,915.554,VALID,0,VALID,99.7724,VALID,-0.0169808,VALID,18.1821,VALID,173,VALID,0.165516,
2005-04-01, 02:09:00,VALID,915.535,VALID,0,VALID,100,VALID,0,VALID,18.195,VALID,173,VALID,0,
2005-04-01, 02:10:00,VALID,915.537,VALID,0,VALID,100,VALID,-0.0169808,VALID,18.3087,VALID,173,VALID,0.156944,
2005-04-01, 02:11:00,VALID,915.539,VALID,0,VALID,100,VALID,-0.0169808,VALID,18.3928,VALID,173,VALID,0.153343,
2005-04-01, 02:12:00,VALID,915.561,VALID,0,VALID,100,VALID,0,VALID,18.4311,VALID,173,VALID,0,
2005-04-01, 02:13:00,VALID,915.564,VALID,0,VALID,100,VALID,0.0169808,VALID,18.4696,VALID,173,VALID,0.0183503,
2005-04-01, 02:14:00,VALID,915.545,VALID,0,VALID,100,VALID,-0.0169808,VALID,18.5026,VALID,173,VALID,0,
2005-04-01, 02:15:00,VALID,915.516,VALID,0,VALID,100,VALID,-0.0509425,VALID,18.4795,VALID,173,VALID,0,
2005-04-01, 02:16:00,VALID,915.512,VALID,0,VALID,100,VALID,-0.0509425,VALID,18.4346,VALID,129,VALID,0.204427,
2005-04-01, 02:17:00,VALID,915.487,VALID,0,VALID,100,VALID,-0.0339617,VALID,18.4281,VALID,37,VALID,0.658668,
2005-04-01, 02:18:00,VALID,915.476,VALID,0,VALID,100,VALID,-0.0169808,VALID,18.4567,VALID,30,VALID,0.778646,
2005-04-01, 02:19:00,VALID,915.482,VALID,0,VALID,100,VALID,-0.0169808,VALID,18.5577,VALID,29,VALID,0.663261,
2005-04-01, 02:20:00,VALID,915.469,VALID,0,VALID,100,VALID,-0.0339617,VALID,18.5704,VALID,28,VALID,0.502257,
2005-04-01, 02:21:00,VALID,915.486,VALID,0,VALID,100,VALID,-0.0169808,VALID,18.5478,VALID,28,VALID,0.248264,
2005-04-01, 02:22:00,VALID,915.489,VALID,0,VALID,100,VALID,-0.0679233,VALID,18.5577,VALID,28,VALID,0,
2005-04-01, 02:23:00,VALID,915.488,VALID,0,VALID,100,VALID,-0.0169808,VALID,18.5515,VALID,28,VALID,0,
2005-04-01, 02:24:00,VALID,915.494,VALID,0,VALID,100,VALID,-0.0679233,VALID,18.5383,VALID,28,VALID,0,
2005-04-01, 02:25:00,VALID,915.474,VALID,0,VALID,100,VALID,-0.0509425,VALID,18.5614,VALID,28,VALID,0.0432546,
2005-04-01, 02:26:00,VALID,915.461,VALID,0,VALID,100,VALID,0,VALID,18.5319,VALID,28,VALID,0.253534,
2005-04-01, 02:27:00,VALID,915.448,VALID,0,VALID,100,VALID,-0.0169808,VALID,18.4639,VALID,28,VALID,0.712798,
2005-04-01, 02:28:00,VALID,915.425,VALID,0,VALID,100,VALID,-0.0339617,VALID,18.4798,VALID,26,VALID,0.961868,
2005-04-01, 02:29:00,VALID,915.433,VALID,0,VALID,100,VALID,0,VALID,18.6257,VALID,16,VALID,0.341667,
2005-04-01, 02:30:00,VALID,915.425,VALID,0,VALID,100,VALID,0,VALID,18.6772,VALID,16,VALID,0,
2005-04-01, 02:31:00,VALID,915.41,VALID,0,VALID,100,VALID,-0.0169808,VALID,18.6804,VALID,16,VALID,0.0744792,
2005-04-01, 02:32:00,VALID,915.392,VALID,0,VALID,100,VALID,-0.0509425,VALID,18.6511,VALID,16,VALID,0.197443,
2005-04-01, 02:33:00,VALID,915.375,VALID,0,VALID,100,VALID,0,VALID,18.5833,VALID,16,VALID,0.0613567,
2005-04-01, 02:34:00,VALID,915.369,VALID,0,VALID,100,VALID,0,VALID,18.5282,VALID,16,VALID,0.0111607,
2005-04-01, 02:35:00,VALID,915.386,VALID,0,VALID,100,VALID,0,VALID,18.4604,VALID,23,VALID,0.332617,
2005-04-01, 02:36:00,VALID,915.381,VALID,0,VALID,100,VALID,0,VALID,18.4184,VALID,118,VALID,0.458079,
2005-04-01, 02:37:00,VALID,915.379,VALID,0,VALID,100,VALID,-0.0509425,VALID,18.3991,VALID,118,VALID,0.202567,
2005-04-01, 02:38:00,VALID,915.373,VALID,0,VALID,100,VALID,0,VALID,18.4221,VALID,118,VALID,0.0361555,
2005-04-01, 02:39:00,VALID,915.368,VALID,0,VALID,100,VALID,0,VALID,18.48,VALID,118,VALID,0.0128997,
2005-04-01, 02:40:00,VALID,915.366,VALID,0,VALID,100,VALID,-0.0509425,VALID,18.4283,VALID,118,VALID,0.00308866,
2005-04-01, 02:41:00,VALID,915.354,VALID,0,VALID,100,VALID,-0.0679233,VALID,18.4274,VALID,118,VALID,0,
2005-04-01, 02:42:00,VALID,915.362,VALID,0,VALID,100,VALID,-0.0169808,VALID,18.5125,VALID,118,VALID,0,
2005-04-01, 02:43:00,VALID,915.357,VALID,0,VALID,100,VALID,-0.0339617,VALID,18.6414,VALID,118,VALID,0.0985137,
2005-04-01, 02:44:00,VALID,915.356,VALID,0,VALID,100,VALID,-0.0169808,VALID,18.6024,VALID,111,VALID,0.515439,
2005-04-01, 02:45:00,VALID,915.339,VALID,0,VALID,100,VALID,-0.0169808,VALID,18.5254,VALID,103,VALID,0.516959,
2005-04-01, 02:46:00,VALID,915.331,VALID,0,VALID,100,VALID,-0.0169808,VALID,18.5738,VALID,29,VALID,0.575335,
2005-04-01, 02:47:00,VALID,915.319,VALID,0,VALID,100,VALID,-0.0339617,VALID,18.6804,VALID,26,VALID,0.459821,
2005-04-01, 02:48:00,VALID,915.322,VALID,0,VALID,100,VALID,0,VALID,18.703,VALID,18,VALID,0.621094,
2005-04-01, 02:49:00,VALID,915.297,VALID,0,VALID,100,VALID,-0.0679233,VALID,18.6767,VALID,16,VALID,0.95191,
2005-04-01, 02:50:00,VALID,915.286,VALID,0,VALID,100,VALID,-0.0339617,VALID,18.6573,VALID,16,VALID,0.889737,
2005-04-01, 02:51:00,VALID,915.281,VALID,0,VALID,100,VALID,-0.0509425,VALID,18.7127,VALID,6,VALID,0.327363,
2005-04-01, 02:52:00,VALID,915.277,VALID,0,VALID,100,VALID,-0.0169808,VALID,18.7122,VALID,4,VALID,0.00923295,
2005-04-01, 02:53:00,VALID,915.266,VALID,0,VALID,100,VALID,-0.0339617,VALID,18.7129,VALID,4,VALID,0.00745739,
2005-04-01, 02:54:00,VALID,915.253,VALID,0,VALID,100,VALID,-0.0509425,VALID,18.6476,VALID,4,VALID,0,
2005-04-01, 02:55:00,VALID,915.237,VALID,0,VALID,100,VALID,-0.0339617,VALID,18.619,VALID,4,VALID,0,
2005-04-01, 02:56:00,VALID,915.236,VALID,0,VALID,100,VALID,-0.0509425,VALID,18.5768,VALID,4,VALID,0,
2005-04-01, 02:57:00,VALID,915.242,VALID,0,VALID,100,VALID,0,VALID,18.5565,VALID,4,VALID,0,
2005-04-01, 02:58:00,VALID,915.252,VALID,0,VALID,100,VALID,0,VALID,18.6024,VALID,4,VALID,0,
2005-04-01, 02:59:00,VALID,915.255,VALID,0,VALID,100,VALID,-0.0509425,VALID,18.6506,VALID,4,VALID,0,
2005-04-01, 03:00:00,VALID,915.26,VALID,0,VALID,100,VALID,-0.0339617,VALID,18.706,VALID,4,VALID,0,
2005-04-01, 03:01:00,VALID,915.275,VALID,0,VALID,100,VALID,-0.0169808,VALID,18.6995,VALID,4,VALID,0.139535,
2005-04-01, 03:02:00,VALID,915.271,VALID,0,VALID,100,VALID,-0.0679233,VALID,18.6705,VALID,4,VALID,0.0870808,
2005-04-01, 03:03:00,VALID,915.279,VALID,0,VALID,100,VALID,-0.0339617,VALID,18.667,VALID,4,VALID,0,
2005-04-01, 03:04:00,VALID,915.311,VALID,0,VALID,100,VALID,0,VALID,18.6792,VALID,4,VALID,0,
2005-04-01, 03:05:00,VALID,915.312,VALID,0,VALID,100,VALID,0.0339617,VALID,18.6917,VALID,4,VALID,0,
2005-04-01, 03:06:00,VALID,915.318,VALID,0,VALID,100,VALID,0.101885,VALID,18.6822,VALID,4,VALID,0,
2005-04-01, 03:07:00,VALID,915.322,VALID,0,VALID,100,VALID,0.0679233,VALID,18.6529,VALID,4,VALID,0.0485372,
2005-04-01, 03:08:00,VALID,915.317,VALID,0,VALID,100,VALID,0.0679233,VALID,18.6688,VALID,4,VALID,0.361049,
2005-04-01, 03:09:00,VALID,915.315,VALID,0,VALID,100,VALID,0.0849042,VALID,18.6755,VALID,4,VALID,0.0785061,
2005-04-01, 03:10:00,VALID,915.31,VALID,0,VALID,100,VALID,0.0339617,VALID,18.6661,VALID,4,VALID,0.329055,
2005-04-01, 03:11:00,VALID,915.296,VALID,0,VALID,100,VALID,0.0169808,VALID,18.6239,VALID,6,VALID,0.431641,
2005-04-01, 03:12:00,VALID,915.296,VALID,0,VALID,100,VALID,0.0509425,VALID,18.5983,VALID,17,VALID,0.48117,
2005-04-01, 03:13:00,VALID,915.291,VALID,0,VALID,100,VALID,0.0509425,VALID,18.5948,VALID,17,VALID,0.0114329,
2005-04-01, 03:14:00,VALID,915.291,VALID,0,VALID,100,VALID,0.0509425,VALID,18.5851,VALID,17,VALID,0,
2005-04-01, 03:15:00,VALID,915.277,VALID,0,VALID,100,VALID,0.0679233,VALID,18.608,VALID,17,VALID,0.0450721,
2005-04-01, 03:16:00,VALID,915.294,VALID,0,VALID,100,VALID,0.0679233,VALID,18.6015,VALID,17,VALID,0.0115412,
2005-04-01, 03:17:00,VALID,915.279,VALID,0,VALID,100,VALID,0.0509425,VALID,18.5789,VALID,17,VALID,0,
2005-04-01, 03:18:00,VALID,915.277,VALID,0,VALID,100,VALID,0.0509425,VALID,18.5881,VALID,17,VALID,0,
2005-04-01, 03:19:00,VALID,915.278,VALID,0,VALID,100,VALID,0.0849042,VALID,18.6206,VALID,17,VALID,0.0355903,
2005-04-01, 03:20:00,VALID,915.289,VALID,0,VALID,100,VALID,0.0339617,VALID,18.6209,VALID,17,VALID,0.016183,
2005-04-01, 03:21:00,VALID,915.298,VALID,0,VALID,100,VALID,0.0679233,VALID,18.5821,VALID,17,VALID,0.00545058,
2005-04-01, 03:22:00,VALID,915.308,VALID,0,VALID,100,VALID,0.0339617,VALID,18.5724,VALID,17,VALID,0,
2005-04-01, 03:23:00,VALID,915.307,VALID,0,VALID,100,VALID,0.0849042,VALID,18.6045,VALID,17,VALID,0,
2005-04-01, 03:24:00,VALID,915.317,VALID,0,VALID,100,VALID,0.0849042,VALID,18.6529,VALID,17,VALID,0,
2005-04-01, 03:25:00,VALID,915.327,VALID,0,VALID,100,VALID,0.101885,VALID,18.6725,VALID,17,VALID,0,
2005-04-01, 03:26:00,VALID,915.327,VALID,0,VALID,100,VALID,0.101885,VALID,18.6621,VALID,17,VALID,0,
2005-04-01, 03:27:00,VALID,915.323,VALID,0,VALID,100,VALID,0.0679233,VALID,18.6787,VALID,17,VALID,0,
2005-04-01, 03:28:00,VALID,915.302,VALID,0,VALID,100,VALID,0.0509425,VALID,18.6564,VALID,17,VALID,0,
2005-04-01, 03:29:00,VALID,915.3,VALID,0,VALID,100,VALID,0.101885,VALID,18.6428,VALID,17,VALID,0,
2005-04-01, 03:30:00,VALID,915.301,VALID,0,VALID,100,VALID,0.0679233,VALID,18.6559,VALID,17,VALID,0.0428735,
2005-04-01, 03:31:00,VALID,915.314,VALID,0,VALID,100,VALID,0.101885,VALID,18.711,VALID,338,VALID,0.177557,
2005-04-01, 03:32:00,VALID,915.306,VALID,0,VALID,100,VALID,0.0679233,VALID,18.7624,VALID,238,VALID,0.39383,
2005-04-01, 03:33:00,VALID,915.312,VALID,0,VALID,100,VALID,0.0849042,VALID,18.8012,VALID,238,VALID,0.253348,
2005-04-01, 03:34:00,VALID,915.303,VALID,0,VALID,100,VALID,0.0679233,VALID,18.8565,VALID,238,VALID,0.0588542,
2005-04-01, 03:35:00,VALID,915.321,VALID,0,VALID,100,VALID,0.0679233,VALID,18.8665,VALID,238,VALID,0.0170455,
2005-04-01, 03:36:00,VALID,915.321,VALID,0,VALID,100,VALID,0.101885,VALID,18.7753,VALID,238,VALID,0.0905449,
2005-04-01, 03:37:00,VALID,915.326,VALID,0,VALID,100,VALID,0.101885,VALID,18.7368,VALID,238,VALID,0.00133384,
2005-04-01, 03:38:00,VALID,915.323,VALID,0,VALID,100,VALID,0.0849042,VALID,18.7398,VALID,238,VALID,0.00186012,
2005-04-01, 03:39:00,VALID,915.318,VALID,0,VALID,100,VALID,0.101885,VALID,18.7108,VALID,238,VALID,0,
2005-04-01, 03:40:00,VALID,915.302,VALID,0,VALID,100,VALID,0.0849042,VALID,18.5819,VALID,238,VALID,0.151786,
2005-04-01, 03:41:00,VALID,915.295,VALID,0,VALID,100,VALID,0.101885,VALID,18.5106,VALID,292,VALID,0.347202,
2005-04-01, 03:42:00,VALID,915.309,VALID,0,VALID,100,VALID,0.0849042,VALID,18.4399,VALID,332,VALID,0.046131,
2005-04-01, 03:43:00,VALID,915.306,VALID,0,VALID,100,VALID,0.0849042,VALID,18.427,VALID,332,VALID,0,
2005-04-01, 03:44:00,VALID,915.3,VALID,0,VALID,100,VALID,0.0679233,VALID,18.4528,VALID,332,VALID,0.0199653,